ATLAS 5 CENTAUR DEB, 43951

Orbit data source: Space-Track

ATLAS 5 CENTAUR DEB, 43951 is space debris in HEO originally from a launch on Wed, 17 Sep 2014 UTC launched from the Air Force Eastern Test Range (AFETR). Debris objects in space refer to the collection of defunct objects orbiting the Earth. Examples of debris include non-operational satellites, rocket bodies, and fragments generated from explosions, collisions, or faulty payload assembly.

Loading next visibility...
ATLAS 5 CENTAUR DEB details
Identifier
43951, 2014-055E
Orbit
HEO
Last TLE update16 hours ago
Origin
Flag of USULA (US)
ManufacturerUnknown
MissionSpacecraft
Bus & MotorUnknown
MassUnknown
Launch date (UTC)
2014-09-17 (10 years ago)
Launch vehicleUnknown
Launch site
Air Force Eastern Test Range (AFETR)
Object type
Payload
Rocket body
Debris
Shape & HBRUnknown
Radar Cross SectionSmall (<0.1 m²)

Expand to show TLE details & history

TLE from 16 hours ago
0 ATLAS 5 CENTAUR DEB
1 43951U 14055E   24361.07903232  .00000017  00000-0  00000-0 0  9997
2 43951  19.8214 179.2958 5008626 104.8410 313.9442  1.89472636 43699
Epoch: 2024-12-26T01:53Z
Definitive object data (Epoch: 2024-12-26T01:53:48.392Z)
Latitude-0°
Longitude55.80636°
Altitude17,291.608 km
Speed4.385 km/s
True Right ascension11h 57m 17s
True Declination0° 00' 00"
Sunlit
Object was in daylight at TLE epoch
Visualization TLE readout
Latitude-8.97899°
Longitude-98.2859°
Altitude16,776.944 km
Speed4.47 km/s
Apparent Right ascension02h 14m 29s
Apparent Declination-16° 19' 37"
Sunlit
Object is in daylight
Visualization observer readout
Local Sidereal Time17:06:22
Azimuth70.241° E
Elevation-45.97°
Doppler factor1
Orbital elements
Apogee altitude35,029.215 km
Perigee altitude7,392.582 km
Semi-major axis27,589.036 km
Eccentricity0.5008626
Inclination19.8214°
RAAN179.2958°
Arg. of periapsis104.841°
True anomaly255.27226°
Mean anomaly313.9442°
Eccentric anomaly286.41685°
Mean motion0.47363 °/min
BSTARUnknown
Orbital period760.09 mins
Loading maneuver chart data...

ATLAS 5 CENTAUR DEB Visibility forecast

Observer location: undefined°, undefined

Span
Click to sort rows by Start time (UTC) header in descending order
Start Az.
Max El. time (UTC)
Max El. Az.
Max El.
End time (UTC)
End Az.
128 mins2024-12-27 15:35:59.254Z243.247° WSW2024-12-27 17:10:59.254Z174.246° S38.952°2024-12-27 17:43:59.254Z104.555° ESE
|